WA8SIE Weather Reports


time (UTC)temp
C
wind
direction
speed
KPH
gust
KPH
rain 1hr
cm
rain 24hr
cm
rain mn
cm
humidity
%
barometer
mb
20260904231510 28 102 0.0 0.0 0.00 0.00 0.00 71 1008.8
20260904231010 28 103 0.0 0.0 0.00 0.00 0.00 73 1008.8
20260904230510 28 103 0.0 0.0 0.00 0.00 0.00 69 1008.8
20260904230010 28 103 0.0 0.0 0.00 0.00 0.00 69 1008.8
20260904225013 28 117 0.0 0.0 0.00 0.00 0.00 70 1008.9
20260904224511 28 141 0.0 6.4 0.00 0.00 0.00 70 1008.9
20260904224012 28 181 0.0 0.0 0.00 0.00 0.00 69 1009.3
20260904223511 28 199 0.0 0.0 0.00 0.00 0.00 70 1009.3
20260904223011 28 155 0.0 0.0 0.00 0.00 0.00 69 1009.3
20260904222511 28 116 1.6 0.0 0.00 0.00 0.00 69 1009.7
20260904222013 28 25 3.2 0.0 0.00 0.00 0.00 69 1009.7
20260904221511 29 26 0.0 0.0 0.00 0.00 0.00 69 1009.7
20260904221011 29 26 0.0 0.0 0.00 0.00 0.00 67 1009.8
20260904220011 29 161 0.0 0.0 0.00 0.00 0.00 68 1009.8
20260904215511 29 161 0.0 1.6 0.00 0.00 0.00 67 1009.7
20260904215011 29 55 0.0 0.0 0.00 0.00 0.00 67 1009.7
20260904214511 29 55 0.0 0.0 0.00 0.00 0.00 67 1009.7
20260904214011 29 55 0.0 0.0 0.00 0.00 0.00 67 1010.0
20260904213511 29 55 0.0 0.0 0.00 0.00 0.00 66 1010.0
20260904213011 29 41 0.0 1.6 0.00 0.00 0.00 67 1010.0
20260904212511 29 41 0.0 0.0 0.00 0.00 0.00 67 1009.8
20260904212011 29 41 0.0 0.0 0.00 0.00 0.00 67 1009.8
20260904211511 30 42 0.0 0.0 0.00 0.00 0.00 66 1009.8
20260904211011 30 41 0.0 0.0 0.00 0.00 0.00 66 1009.9
20260904210513 30 107 0.0 0.0 0.00 0.00 0.00 66 1009.9
20260904210012 30 115 0.0 0.0 0.00 0.00 0.00 66 1009.9
20260904205513 30 115 0.0 0.0 0.00 0.00 0.00 65 1009.5
20260904205011 30 115 0.0 0.0 0.00 0.00 0.00 65 1009.5
20260904204512 30 113 0.0 0.0 0.00 0.00 0.00 65 1009.5
20260904204011 31 240 0.0 8.0 0.00 0.00 0.00 64 1009.2
20260904203011 31 331 0.0 0.0 0.00 0.00 0.00 62 1009.2
20260904202511 31 331 0.0 0.0 0.00 0.00 0.00 61 1009.7
20260904202012 32 64 0.0 0.0 0.00 0.00 0.00 59 1009.7
20260904201511 33 50 0.0 17.7 0.00 0.00 0.00 55 1009.7
20260904201011 33 278 0.0 0.0 0.00 0.00 0.00 53 1009.1
20260904200511 33 194 0.0 0.0 0.00 0.00 0.00 50 1009.1
20260904200011 33 199 0.0 0.0 0.00 0.00 0.00 53 1009.1
20260904195511 33 199 0.0 0.0 0.00 0.00 0.00 53 1009.2
20260904195011 33 149 0.0 4.8 0.00 0.00 0.00 55 1009.2
20260904193511 32 176 0.0 0.0 0.00 0.00 0.00 56 1009.5
20260904192511 32 303 0.0 0.0 0.00 0.00 0.00 58 1009.2
20260904191511 32 186 0.0 0.0 0.00 0.00 0.00 59 1009.2
20260904191011 32 127 0.0 0.0 0.00 0.00 0.00 61 1010.1
20260904190510 32 122 1.6 0.0 0.00 0.00 0.00 62 1010.1
20260904190011 32 122 0.0 11.3 0.00 0.00 0.00 61 1010.1
20260904185512 32 278 0.0 0.0 0.00 0.00 0.00 59 1010.0
20260904185011 32 333 4.8 0.0 0.00 0.00 0.00 59 1010.0
20260904184511 32 326 6.4 0.0 0.00 0.00 0.00 60 1010.0
20260904184011 32 270 0.0 0.0 0.00 0.00 0.00 57 1009.5
20260904183511 32 212 0.0 4.8 0.00 0.00 0.00 61 1009.5
20260904183011 32 212 0.0 0.0 0.00 0.00 0.00 69 1009.5
20260904182511 31 212 3.2 0.0 0.00 0.00 0.00 67 1009.5
20260904182012 32 212 0.0 0.0 0.00 0.00 0.00 68 1009.5
20260904181010 32 212 3.2 0.0 0.00 0.00 0.00 62 1009.7
20260904180510 33 259 0.0 0.0 0.00 0.00 0.00 60 1009.7
20260904175510 33 259 0.0 0.0 0.00 0.00 0.00 56 1009.8
20260904175011 34 259 0.0 0.0 0.00 0.00 0.00 54 1009.8
20260904174511 35 242 0.0 1.6 0.00 0.00 0.00 52 1009.8
20260904174012 35 241 0.0 0.0 0.00 0.00 0.00 51 1010.2
20260904173511 34 316 0.0 0.0 0.00 0.00 0.00 53 1010.2
20260904173011 34 319 0.0 0.0 0.00 0.00 0.00 53 1010.2
20260904172510 34 338 0.0 0.0 0.00 0.00 0.00 55 1010.4
20260904172010 34 1 0.0 8.0 0.00 0.00 0.00 55 1010.4
20260904171511 34 321 8.0 0.0 0.00 0.00 0.00 56 1010.4
20260904171010 34 335 0.0 0.0 0.00 0.00 0.00 54 1010.3
20260904170511 34 10 3.2 0.0 0.00 0.00 0.00 54 1010.3
20260904170010 34 186 0.0 0.0 0.00 0.00 0.00 55 1010.3
20260904165512 34 8 8.0 1.6 0.00 0.00 0.00 55 1010.5
20260904165010 34 314 0.0 0.0 0.00 0.00 0.00 56 1010.5
20260904164511 33 300 0.0 0.0 0.00 0.00 0.00 56 1010.5
20260904164010 33 185 0.0 0.0 0.00 0.00 0.00 58 1010.6
20260904163510 33 188 8.0 0.0 0.00 0.00 0.00 58 1010.6
20260904163010 33 309 0.0 9.7 0.00 0.00 0.00 58 1010.6
20260904162011 33 258 0.0 0.0 0.00 0.00 0.00 61 1010.9
20260904161511 33 268 0.0 0.0 0.00 0.00 0.00 61 1010.9
20260904161011 32 326 3.2 0.0 0.00 0.00 0.00 60 1011.0
20260904160511 32 326 0.0 6.4 0.00 0.00 0.00 60 1011.0
20260904160010 32 281 0.0 0.0 0.00 0.00 0.00 62 1011.0
20260904155510 32 43 4.8 0.0 0.00 0.00 0.00 64 1011.1
20260904154510 32 321 0.0 0.0 0.00 0.00 0.00 65 1011.1
20260904154012 32 219 0.0 3.2 0.00 0.00 0.00 66 1011.2
20260904153011 32 219 0.0 0.0 0.00 0.00 0.00 66 1011.2
20260904152510 31 219 0.0 0.0 0.00 0.00 0.00 67 1011.1
20260904152010 31 219 0.0 0.0 0.00 0.00 0.00 67 1011.1
20260904151512 31 219 0.0 4.8 0.00 0.00 0.00 68 1011.1
20260904151012 31 219 0.0 0.0 0.00 0.00 0.00 69 1011.3
20260904145012 30 220 1.6 6.4 0.00 0.00 0.00 70 1011.3
20260904144512 30 236 0.0 0.0 0.00 0.00 0.00 70 1011.3
20260904144011 30 236 0.0 0.0 0.00 0.00 0.00 70 1011.4
20260904143511 30 236 0.0 0.0 0.00 0.00 0.00 73 1011.4
20260904143011 30 236 0.0 0.0 0.00 0.00 0.00 73 1011.4
20260904142011 29 236 0.0 0.0 0.00 0.00 0.00 75 1011.3
20260904141513 29 236 0.0 0.0 0.00 0.00 0.00 76 1011.3
20260904141011 28 236 0.0 0.0 0.00 0.00 0.00 77 1011.3
20260904140011 28 236 0.0 0.0 0.00 0.00 0.00 79 1011.3
20260904135511 28 236 0.0 0.0 0.00 0.00 0.00 80 1011.3
20260904134511 27 236 0.0 0.0 0.00 0.00 0.00 83 1011.3
20260904134011 27 236 0.0 0.0 0.00 0.00 0.00 84 1011.4
20260904133512 27 236 0.0 0.0 0.00 0.00 0.00 85 1011.4
20260904133013 27 236 0.0 0.0 0.00 0.00 0.00 86 1011.4
20260904132511 26 236 0.0 0.0 0.00 0.00 0.00 87 1011.5
20260904132013 26 236 0.0 0.0 0.00 0.00 0.00 87 1011.5
20260904131511 26 236 0.0 0.0 0.00 0.00 0.00 88 1011.5
20260904131011 26 236 0.0 0.0 0.00 0.00 0.00 90 1011.5
20260904130011 25 216 0.0 0.0 0.00 0.00 0.00 92 1011.5
20260904125513 25 216 0.0 0.0 0.00 0.00 0.00 94 1011.4
20260904125011 25 216 0.0 0.0 0.00 0.00 0.00 96 1011.4
20260904124511 25 216 0.0 0.0 0.00 0.00 0.00 98 1011.4
20260904124012 25 216 0.0 0.0 0.00 0.00 0.00 99 1011.5
20260904123511 24 216 0.0 0.0 0.00 0.00 0.00 100 1011.5
20260904123011 24 216 0.0 0.0 0.00 0.00 0.00 100 1011.5
20260904122511 23 216 0.0 0.0 0.00 0.00 0.00 100 1011.4
20260904121511 23 216 0.0 0.0 0.00 0.00 0.00 100 1011.4
20260904120511 23 216 0.0 0.0 0.00 0.00 0.00 100 1011.3
20260904120011 23 216 0.0 0.0 0.00 0.00 0.00 100 1011.3
20260904115511 23 216 0.0 0.0 0.00 0.00 0.00 100 1011.4
20260904115011 23 216 0.0 0.0 0.00 0.00 0.00 100 1011.4
20260904114511 22 216 0.0 0.0 0.00 0.00 0.00 100 1011.4
20260904113511 22 215 0.0 0.0 0.00 0.00 0.00 100 1011.2
20260904113012 22 216 0.0 0.0 0.00 0.00 0.00 100 1011.2
20260904112512 22 216 0.0 0.0 0.00 0.00 0.00 100 1011.0
20260904112012 22 216 0.0 0.0 0.00 0.00 0.00 100 1011.0
20260904111510 22 216 0.0 0.0 0.00 0.00 0.00 100 1011.0
20260904111010 22 216 0.0 0.0 0.00 0.00 0.00 100 1010.8
20260904110511 22 216 0.0 0.0 0.00 0.00 0.00 100 1010.8
20260904110011 22 216 0.0 0.0 0.00 0.00 0.00 100 1010.8
20260904105512 22 216 0.0 0.0 0.00 0.00 0.00 100 1010.8
20260904105011 22 216 0.0 0.0 0.00 0.00 0.00 100 1010.8
20260904104011 22 216 0.0 0.0 0.00 0.00 0.00 100 1010.8
20260904103511 23 216 0.0 0.0 0.00 0.00 0.00 100 1010.8
20260904103011 23 216 0.0 0.0 0.00 0.00 0.00 100 1010.8
20260904102510 23 216 0.0 0.0 0.00 0.00 0.00 100 1010.8
20260904102010 23 216 0.0 0.0 0.00 0.00 0.00 100 1010.8
20260904101510 23 216 0.0 1.6 0.00 0.00 0.00 100 1010.8
20260904101011 23 215 0.0 0.0 0.00 0.00 0.00 100 1010.7
20260904100510 23 216 0.0 0.0 0.00 0.00 0.00 100 1010.7
20260904100011 23 216 0.0 0.0 0.00 0.00 0.00 100 1010.7
20260904095512 23 216 0.0 0.0 0.00 0.00 0.00 100 1010.7
20260904095011 23 216 0.0 0.0 0.00 0.00 0.00 100 1010.7
20260904094511 23 216 0.0 0.0 0.00 0.00 0.00 100 1010.7
20260904093011 23 216 0.0 0.0 0.00 0.00 0.00 100 1010.6
20260904092512 23 216 0.0 0.0 0.00 0.00 0.00 100 1010.3
20260904092011 23 216 0.0 0.0 0.00 0.00 0.00 100 1010.3
20260904091511 23 216 0.0 0.0 0.00 0.00 0.00 100 1010.3
20260904091011 23 216 0.0 0.0 0.00 0.00 0.00 100 1010.2
20260904090511 23 216 0.0 0.0 0.00 0.00 0.00 100 1010.2
20260904090011 23 216 0.0 0.0 0.00 0.00 0.00 100 1010.2
20260904085511 23 216 0.0 0.0 0.00 0.00 0.00 100 1010.1
20260904085011 23 216 0.0 0.0 0.00 0.00 0.00 100 1010.1
20260904084510 23 216 0.0 0.0 0.00 0.00 0.00 100 1010.1
20260904084011 23 216 0.0 0.0 0.00 0.00 0.00 100 1010.0
20260904083510 23 216 1.6 3.2 0.00 0.00 0.00 100 1010.0
20260904083010 23 216 0.0 0.0 0.00 0.00 0.00 100 1010.0
20260904082510 23 216 0.0 0.0 0.00 0.00 0.00 100 1010.0
20260904082012 23 216 0.0 0.0 0.00 0.00 0.00 100 1010.0
20260904081510 23 216 0.0 0.0 0.00 0.00 0.00 100 1010.0
20260904081012 23 216 1.6 4.8 0.00 0.00 0.00 100 1010.1
20260904080510 23 216 0.0 0.0 0.00 0.00 0.00 100 1010.1
20260904074010 23 216 0.0 0.0 0.00 0.00 0.00 100 1010.1
20260904073510 23 216 0.0 0.0 0.00 0.00 0.00 100 1010.1
20260904073011 23 216 0.0 0.0 0.00 0.00 0.00 100 1010.1
20260904071510 23 216 0.0 0.0 0.00 0.00 0.00 100 1010.1
20260904071013 23 216 0.0 0.0 0.00 0.00 0.00 100 1010.0
20260904070511 24 216 0.0 0.0 0.00 0.00 0.00 100 1010.0
20260904070011 24 216 0.0 0.0 0.00 0.00 0.00 100 1010.0
20260904065012 23 216 0.0 0.0 0.00 0.00 0.00 100 1010.1
20260904064511 24 216 0.0 0.0 0.00 0.00 0.00 100 1010.1
20260904064013 24 216 0.0 0.0 0.00 0.00 0.00 100 1010.2
20260904063511 24 216 0.0 0.0 0.00 0.00 0.00 100 1010.2
20260904062511 24 216 0.0 0.0 0.00 0.00 0.00 100 1010.3
20260904062011 24 215 0.0 0.0 0.00 0.00 0.00 100 1010.3
20260904061511 24 216 0.0 0.0 0.00 0.00 0.00 100 1010.3
20260904061011 24 216 0.0 0.0 0.00 0.00 0.00 100 1010.5
20260904060511 24 216 0.0 0.0 0.00 0.00 0.00 100 1010.5
20260904060011 24 216 0.0 0.0 0.00 0.00 0.00 100 1010.5
20260904055511 24 216 0.0 0.0 0.00 0.00 0.00 100 1010.5
20260904055013 24 215 0.0 0.0 0.00 0.00 0.00 100 1010.5
20260904054511 24 216 0.0 0.0 0.00 0.00 0.00 100 1010.5
20260904054011 25 216 0.0 0.0 0.00 0.00 0.00 100 1010.6
20260904053511 25 216 0.0 0.0 0.00 0.00 0.00 100 1010.6
20260904052511 25 216 0.0 0.0 0.00 0.00 0.00 99 1010.5
20260904052011 25 216 0.0 0.0 0.00 0.00 0.00 99 1010.5
20260904051513 25 215 0.0 0.0 0.00 0.00 0.00 99 1010.5
20260904051011 25 216 0.0 0.0 0.00 0.00 0.00 99 1010.6
20260904050511 25 216 0.0 0.0 0.00 0.00 0.00 99 1010.6
20260904050011 25 216 0.0 0.0 0.00 0.00 0.00 99 1010.6
20260904045513 25 216 0.0 0.0 0.00 0.00 0.00 99 1010.6
20260904045011 25 216 0.0 0.0 0.00 0.00 0.00 99 1010.6
20260904044511 25 216 0.0 0.0 0.00 0.00 0.00 99 1010.6
20260904043511 25 216 0.0 0.0 0.00 0.00 0.00 98 1010.5
20260904043011 25 216 0.0 0.0 0.00 0.00 0.00 98 1010.5
20260904042511 25 216 0.0 0.0 0.00 0.00 0.00 98 1010.5
20260904042011 25 216 0.0 0.0 0.00 0.00 0.00 98 1010.5
20260904041511 25 216 0.0 0.0 0.00 0.00 0.00 98 1010.5
20260904035511 25 216 0.0 0.0 0.00 0.00 0.00 97 1010.6
20260904035011 25 216 0.0 0.0 0.00 0.00 0.00 97 1010.6
20260904034511 25 216 0.0 0.0 0.00 0.00 0.00 97 1010.6
20260904034011 25 216 0.0 0.0 0.00 0.00 0.00 97 1010.5
20260904033511 26 216 0.0 3.2 0.00 0.00 0.00 97 1010.5
20260904033011 26 216 1.6 0.0 0.00 0.00 0.00 97 1010.5
20260904032512 26 216 0.0 0.0 0.00 0.00 0.00 96 1010.6
20260904031511 26 216 0.0 0.0 0.00 0.00 0.00 96 1010.6
20260904031011 26 216 0.0 0.0 0.00 0.00 0.00 95 1010.7
20260904030511 26 216 0.0 0.0 0.00 0.00 0.00 95 1010.7
20260904030011 26 216 0.0 0.0 0.00 0.00 0.00 95 1010.7
20260904025513 26 216 0.0 0.0 0.00 0.00 0.00 95 1010.7
20260904025011 26 215 0.0 0.0 0.00 0.00 0.00 95 1010.7
20260904024510 26 216 0.0 1.6 0.00 0.00 0.00 95 1010.7
20260904023011 26 215 0.0 0.0 0.00 0.00 0.00 94 1010.7
20260904022510 26 216 0.0 0.0 0.00 0.00 0.00 93 1010.7
20260904022011 26 216 0.0 0.0 0.00 0.00 0.00 93 1010.7
20260904021511 26 216 0.0 0.0 0.00 0.00 0.00 93 1010.7
20260904021010 26 216 0.0 0.0 0.00 0.00 0.00 92 1010.7
20260904020511 26 216 0.0 0.0 0.00 0.00 0.00 92 1010.7
20260904020012 27 216 0.0 0.0 0.00 0.00 0.00 92 1010.7
20260904015511 27 216 0.0 3.2 0.00 0.00 0.00 92 1010.7
20260904015011 27 216 1.6 0.0 0.00 0.00 0.00 91 1010.7
20260904014511 27 217 0.0 0.0 0.00 0.00 0.00 90 1010.7
20260904014011 27 217 0.0 0.0 0.00 0.00 0.00 90 1010.4
20260904013510 27 216 0.0 0.0 0.00 0.00 0.00 89 1010.4
20260904012511 27 217 0.0 0.0 0.00 0.00 0.00 88 1010.4
20260904011512 27 216 0.0 0.0 0.00 0.00 0.00 88 1010.4
20260904011011 27 216 0.0 0.0 0.00 0.00 0.00 87 1010.3
20260904010511 27 216 0.0 0.0 0.00 0.00 0.00 87 1010.3
20260904005511 28 216 0.0 0.0 0.00 0.00 0.00 87 1010.4
20260904005010 28 216 0.0 0.0 0.00 0.00 0.00 86 1010.4
20260904004512 28 216 0.0 0.0 0.00 0.00 0.00 85 1010.4
20260904004010 28 216 0.0 3.2 0.00 0.00 0.00 85 1010.2
20260904003510 28 216 0.0 0.0 0.00 0.00 0.00 84 1010.2
20260904003010 28 216 0.0 0.0 0.00 0.00 0.00 83 1010.2
20260904002510 28 216 0.0 0.0 0.00 0.00 0.00 82 1009.8
20260904001512 28 217 0.0 0.0 0.00 0.00 0.00 80 1009.8
20260904001011 29 217 0.0 0.0 0.00 0.00 0.00 80 1009.9
20260904000510 29 216 0.0 0.0 0.00 0.00 0.00 79 1009.9
20260903235510 30 216 0.0 0.0 0.00 0.00 0.00 77 1010.0
20260903235010 30 216 0.0 0.0 0.00 0.00 0.00 77 1010.0
20260903234010 30 216 0.0 0.0 0.00 0.00 0.00 73 1009.8
20260903233510 30 216 0.0 0.0 0.00 0.00 0.00 72 1009.8
20260903233010 30 217 0.0 0.0 0.00 0.00 0.00 71 1009.8
20260903232510 31 216 0.0 0.0 0.00 0.00 0.00 69 1009.7